| time (UTC) | temp F | wind direction | speed knots | gust knots | rain 1hr in | rain 24hr in | rain mn in | humidity % | barometer mb |
| 20260503021315 | 31 | 315 | 2.6 | 0.0 | 0.00 | 0.00 | 0.00 | 77 | 1005.5 |
| 20260503020313 | 32 | 315 | 1.7 | 0.0 | 0.00 | 0.00 | 0.00 | 78 | 1005.7 |
| 20260503014311 | 32 | 292 | 2.6 | 0.0 | 0.00 | 0.00 | 0.00 | 79 | 1005.4 |
| 20260503013309 | 31 | 292 | 1.7 | 0.0 | 0.00 | 0.00 | 0.00 | 79 | 1005.5 |
| 20260503012308 | 31 | 315 | 0.9 | 0.0 | 0.00 | 0.00 | 0.00 | 79 | 1005.4 |
| 20260503011413 | 32 | 315 | 0.0 | 0.0 | 0.00 | 0.00 | 0.00 | 79 | 1005.4 |
| 20260503011306 | 31 | 315 | 0.0 | 0.0 | 0.00 | 0.00 | 0.00 | 79 | 1005.4 |
| 20260503010305 | 32 | 315 | 0.0 | 0.0 | 0.00 | 0.00 | 0.00 | 79 | 1005.4 |
| 20260503004303 | 33 | 315 | 0.0 | 0.0 | 0.00 | 0.00 | 0.00 | 79 | 1005.4 |
| 20260503003301 | 33 | 315 | 0.0 | 0.0 | 0.00 | 0.00 | 0.00 | 79 | 1005.4 |
| 20260503001622 | 34 | 315 | 0.0 | 0.0 | 0.00 | 0.00 | 0.00 | 79 | 1005.4 |
| 20260503001405 | 34 | 315 | 0.0 | 0.0 | 0.00 | 0.00 | 0.00 | 79 | 1005.4 |
| 20260503001258 | 34 | 315 | 0.0 | 0.0 | 0.00 | 0.00 | 0.00 | 79 | 1005.4 |
| 20260503000257 | 34 | 315 | 0.0 | 0.0 | 0.00 | 0.00 | 0.00 | 79 | 1005.4 |
| 20260502235255 | 35 | 315 | 0.9 | 0.0 | 0.00 | 0.00 | 0.00 | 80 | 1005.6 |
| 20260502233253 | 34 | 315 | 1.7 | 0.0 | 0.00 | 0.00 | 0.00 | 80 | 1005.5 |
| 20260502232251 | 35 | 315 | 1.7 | 0.0 | 0.00 | 0.00 | 0.00 | 81 | 1005.6 |
| 20260502231250 | 35 | 315 | 1.7 | 0.0 | 0.00 | 0.00 | 0.00 | 82 | 1005.8 |
| 20260502223529 | 35 | 315 | 0.9 | 0.0 | 0.00 | 0.00 | 0.00 | 81 | 1005.8 |
| 20260502223245 | 35 | 315 | 0.9 | 0.0 | 0.00 | 0.00 | 0.00 | 81 | 1005.8 |
| 20260502222243 | 35 | 315 | 0.0 | 0.0 | 0.00 | 0.00 | 0.00 | 80 | 1005.8 |
| 20260502220240 | 36 | 315 | 1.7 | 0.0 | 0.00 | 0.00 | 0.00 | 79 | 1005.7 |
| 20260502215239 | 37 | 315 | 0.0 | 0.0 | 0.00 | 0.00 | 0.00 | 79 | 1005.8 |
| 20260502214237 | 37 | 315 | 0.9 | 0.0 | 0.00 | 0.00 | 0.00 | 79 | 1005.8 |
| 20260502212235 | 37 | 315 | 3.5 | 0.0 | 0.00 | 0.00 | 0.00 | 80 | 1005.8 |
| 20260502211233 | 37 | 315 | 1.7 | 0.0 | 0.00 | 0.00 | 0.00 | 79 | 1005.8 |
| 20260502210232 | 37 | 315 | 0.0 | 0.0 | 0.00 | 0.00 | 0.00 | 79 | 1005.9 |
| 20260502204229 | 37 | 292 | 0.0 | 0.0 | 0.00 | 0.00 | 0.00 | 79 | 1005.9 |
| 20260502203227 | 37 | 292 | 0.0 | 0.0 | 0.00 | 0.00 | 0.00 | 79 | 1005.9 |
| 20260502201225 | 37 | 315 | 0.9 | 0.0 | 0.00 | 0.00 | 0.00 | 79 | 1005.9 |
| 20260502200224 | 37 | 315 | 0.0 | 0.0 | 0.00 | 0.00 | 0.00 | 79 | 1006.0 |
| 20260502195222 | 37 | 315 | 4.3 | 0.0 | 0.00 | 0.00 | 0.00 | 79 | 1006.0 |
| 20260502194221 | 37 | 270 | 0.0 | 0.0 | 0.00 | 0.00 | 0.00 | 79 | 1006.0 |
| 20260502193219 | 37 | 270 | 0.9 | 0.0 | 0.00 | 0.00 | 0.00 | 78 | 1006.0 |
| 20260502192218 | 38 | 292 | 0.0 | 0.0 | 0.00 | 0.00 | 0.00 | 78 | 1006.0 |
| 20260502185214 | 38 | 292 | 5.2 | 0.0 | 0.00 | 0.00 | 0.00 | 77 | 1005.9 |
| 20260502184212 | 39 | 292 | 3.5 | 0.0 | 0.00 | 0.00 | 0.00 | 77 | 1005.9 |
| 20260502183211 | 39 | 225 | 0.0 | 0.0 | 0.00 | 0.00 | 0.00 | 76 | 1006.0 |
| 20260502182209 | 39 | 270 | 2.6 | 0.0 | 0.00 | 0.00 | 0.00 | 76 | 1006.0 |
| 20260502180207 | 40 | 180 | 2.6 | 0.0 | 0.00 | 0.00 | 0.00 | 74 | 1006.1 |
| 20260502163155 | 42 | 225 | 1.7 | 0.0 | 0.00 | 0.00 | 0.00 | 73 | 1006.1 |
| 20260502162153 | 42 | 247 | 0.0 | 0.0 | 0.00 | 0.00 | 0.00 | 73 | 1006.2 |
| 20260502161152 | 42 | 247 | 0.0 | 0.0 | 0.00 | 0.00 | 0.00 | 73 | 1006.2 |
| 20260502152145 | 43 | 292 | 0.9 | 0.0 | 0.00 | 0.00 | 0.00 | 70 | 1006.5 |
| 20260502150142 | 43 | 270 | 2.6 | 0.0 | 0.00 | 0.00 | 0.00 | 70 | 1006.9 |
| 20260502130125 | 46 | 292 | 4.3 | 0.0 | 0.00 | 0.00 | 0.00 | 65 | 1007.0 |
| 20260502122120 | 47 | 292 | 2.6 | 0.0 | 0.00 | 0.00 | 0.00 | 64 | 1007.1 |
| 20260502121119 | 47 | 0 | 4.3 | 0.0 | 0.00 | 0.00 | 0.00 | 63 | 1007.2 |
| 20260502120117 | 47 | 202 | 0.0 | 0.0 | 0.00 | 0.00 | 0.00 | 63 | 1007.4 |
| 20260502113113 | 47 | 270 | 1.7 | 0.0 | 0.00 | 0.00 | 0.00 | 63 | 1007.4 |
| 20260502111110 | 47 | 270 | 2.6 | 0.0 | 0.00 | 0.00 | 0.00 | 63 | 1007.4 |
| 20260502110109 | 46 | 270 | 0.0 | 0.0 | 0.00 | 0.00 | 0.00 | 63 | 1007.4 |
| 20260502105107 | 45 | 315 | 0.0 | 0.0 | 0.00 | 0.00 | 0.00 | 64 | 1007.4 |
| 20260502104106 | 45 | 270 | 0.0 | 0.0 | 0.00 | 0.00 | 0.00 | 64 | 1007.6 |
| 20260502103104 | 45 | 225 | 1.7 | 0.0 | 0.00 | 0.00 | 0.00 | 65 | 1007.4 |
| 20260502101102 | 43 | 270 | 0.0 | 0.0 | 0.00 | 0.00 | 0.00 | 69 | 1007.8 |
| 20260502071037 | 39 | 292 | 7.0 | 0.0 | 0.00 | 0.00 | 0.00 | 70 | 1008.5 |
| 20260502064033 | 41 | 247 | 4.3 | 0.0 | 0.00 | 0.00 | 0.00 | 66 | 1008.4 |
| 20260502063031 | 41 | 270 | 2.6 | 0.0 | 0.00 | 0.00 | 0.00 | 65 | 1008.5 |
| 20260502061028 | 41 | 292 | 5.2 | 0.0 | 0.00 | 0.00 | 0.00 | 61 | 1008.3 |
| 20260502060027 | 41 | 315 | 3.5 | 0.0 | 0.00 | 0.00 | 0.00 | 60 | 1008.1 |
| 20260502055025 | 41 | 292 | 2.6 | 0.0 | 0.00 | 0.00 | 0.00 | 60 | 1008.3 |
| 20260502053024 | 40 | 292 | 2.6 | 0.0 | 0.00 | 0.00 | 0.00 | 58 | 1008.5 |
| 20260502052022 | 39 | 270 | 2.6 | 0.0 | 0.00 | 0.00 | 0.00 | 59 | 1008.4 |
| 20260502051020 | 39 | 270 | 0.9 | 0.0 | 0.00 | 0.00 | 0.00 | 58 | 1008.5 |
| 20260502050019 | 39 | 247 | 0.0 | 0.0 | 0.00 | 0.00 | 0.00 | 59 | 1008.7 |
| 20260502045017 | 39 | 270 | 4.3 | 0.0 | 0.00 | 0.00 | 0.00 | 59 | 1008.9 |
| 20260502044016 | 38 | 315 | 4.3 | 0.0 | 0.00 | 0.00 | 0.00 | 61 | 1008.7 |
| 20260502042013 | 37 | 292 | 0.0 | 0.0 | 0.00 | 0.00 | 0.00 | 62 | 1008.7 |
| 20260502041012 | 37 | 292 | 0.0 | 0.0 | 0.00 | 0.00 | 0.00 | 62 | 1008.7 |
| 20260502040010 | 36 | 315 | 0.0 | 0.0 | 0.00 | 0.00 | 0.00 | 62 | 1008.7 |
| 20260502035329 | 38 | 270 | 0.0 | 0.0 | 0.00 | 0.00 | 0.00 | 58 | 1008.8 |
| 20260502035009 | 37 | 270 | 0.0 | 0.0 | 0.00 | 0.00 | 0.00 | 61 | 1008.8 |
| 20260502034841 | 38 | 270 | 0.0 | 0.0 | 0.00 | 0.00 | 0.00 | 58 | 1008.8 |
| 20260502034007 | 38 | 270 | 0.0 | 0.0 | 0.00 | 0.00 | 0.00 | 58 | 1008.8 |
| 20260502032005 | 40 | 225 | 0.0 | 0.0 | 0.00 | 0.00 | 0.00 | 56 | 1009.1 |
| 20260502031004 | 40 | 225 | 0.0 | 0.0 | 0.00 | 0.00 | 0.00 | 56 | 1009.0 |
| 20260502030002 | 40 | 22 | 0.9 | 0.0 | 0.00 | 0.00 | 0.00 | 56 | 1009.2 |
| 20260502025001 | 40 | 270 | 4.3 | 0.0 | 0.00 | 0.00 | 0.00 | 56 | 1009.4 |
| 20260502023959 | 40 | 270 | 5.2 | 0.0 | 0.00 | 0.00 | 0.00 | 56 | 1009.2 |
| 20260502022958 | 40 | 292 | 6.1 | 0.0 | 0.00 | 0.00 | 0.00 | 57 | 1009.3 |